#timestamp,LO_Frequency,Hit,StdDev 
1524841215.3,286047002.6,N
1524841235.1,286047001.4,N
1524841255.8,286047003.6,N
1524841275.7,286047003.4,N
1524841295.5,286047001.8,N
1524841315.4,286047001.4,N
1524841335.2,286047004.2,N
1524841355.0,286047004.0,N
1524841355.9,286047004.0,N
1524841375.8,286047004.4,N
1524841395.6,286047002.1,N
1524841415.4,286047001.7,N
1524841435.3,286047003.8,N
1524841455.1,286047003.0,N
1524841475.9,286047003.8,N
1524841495.7,286047004.1,N
1524841515.5,286047002.0,N
1524841535.4,286047001.3,N
1524841555.2,286047001.7,N
1524841575.1,286047003.7,N
1524841576.0,286047003.7,N
1524841595.8,286047002.3,N
1524841615.6,286047002.7,N
1524841635.5,286047002.6,N
1524841655.3,286047002.8,N
1524841675.1,286047002.6,N
1524841695.9,286046999.7,N
1524841715.7,286047002.1,N
1524841735.6,286047002.1,N
1524841755.4,286047001.4,N
1524841775.2,286047003.9,Y
1524841795.1,286047000.4,P
1524841796.0,286047000.4,N
1524841815.8,286046998.6,N
1524841835.6,286046998.6,N
1524841855.5,286046998.5,N
1524841875.3,286046998.2,N
1524841895.2,286046998.6,N
1524841915.9,286046998.9,N
1524841935.7,286047000.8,N
1524841955.6,286047000.6,N
1524841975.4,286046999.8,N
1524842025.3,286046998.7,E
1524842035.2,286046998.5,N
1524842055.0,286047000.9,P
1524842055.9,286047000.9,N
1524842075.8,286046999.9,N
1524842095.6,286047002.6,N
1524842115.4,286047001.7,N
1524842135.3,286047004.0,Y
1524842155.1,286047002.0,P
1524842175.9,286047001.3,N
1524842195.7,286047002.2,P
1524842215.5,286047001.3,N
1524842235.4,286047001.4,N
1524842255.2,286047001.9,Y
1524842275.1,286046999.9,P
1524842276.0,286046999.9,N
1524842295.8,286046998.1,N
1524842315.6,286047000.4,N
1524842335.5,286047001.0,N
1524842355.3,286046999.9,N
1524842375.1,286047002.1,N
1524842395.9,286046999.8,N
1524842415.7,286047000.3,N
1524842435.6,286046998.7,N
1524842455.4,286047000.6,N
1524842475.2,286047011.9,Y
1524842495.1,286047000.6,P
1524842496.0,286047000.6,N
1524842515.8,286047000.4,N
1524842535.7,286046999.8,N
1524842555.5,286047001.9,Y
1524842575.3,286046999.7,P
1524842595.2,286047000.0,N
1524842615.0,286047000.0,N
1524842615.9,286047000.0,N
1524842635.7,286047000.3,N
1524842655.6,286047000.9,Y
1524842675.4,286047000.7,P
1524842695.3,286046999.8,N
1524842715.1,286047000.3,N
1524842716.0,286047000.3,N
1524842735.8,286047000.5,N
1524842755.7,286047000.7,N
1524842775.5,286046998.5,Y
1524842795.4,286046998.3,P
1524842815.2,286047001.1,N
1524842835.0,286047000.5,N
1524842835.9,286047000.5,N
1524842855.8,286047001.0,N
1524842875.6,286047000.0,N
1524842895.5,286047002.6,N
1524842915.3,286047002.6,N
1524842935.1,286047000.3,N
1524842955.9,286047000.6,N
1524842975.7,286047001.0,N
1524842995.5,286047000.1,N
1524843015.4,286047001.9,N
1524843035.2,286047002.7,N
1524843055.1,286047002.6,N
1524843056.0,286047002.6,N
1524843075.8,286046999.9,N
1524843095.6,286047000.9,N
1524843115.5,286047000.2,N
1524843135.3,286047000.3,N
1524843155.1,286047000.1,N
1524843175.9,286047000.1,N
1524843195.7,286047000.2,N
1524843215.6,286047000.7,N
1524843235.4,286046998.6,N
1524843255.2,286046997.0,N
1524843275.1,286046998.2,N
1524843276.0,286046998.2,N
1524843295.8,286046998.2,N
1524843315.7,286047000.8,N
1524843335.5,286047000.3,N
1524843355.3,286047002.7,N
1524843375.2,286047000.5,N
1524843395.0,286047000.6,N
1524843395.9,286047000.6,N
1524843415.7,286047000.5,N
1524843435.6,286047000.3,N
1524843455.4,286047002.6,N
1524843475.3,286047002.0,N
1524843495.1,286047001.8,N
1524843515.8,286047002.5,N
1524843535.7,286047000.6,N
1524843555.5,286046999.9,N
1524843575.4,286046999.9,N
1524843595.2,286047002.5,N
1524843615.0,286047001.7,N
1524843615.9,286047001.7,N
1524843635.8,286047002.6,N
1524843655.6,286047002.6,N
1524843675.4,286047000.0,N
1524843695.3,286047002.6,N
1524843715.1,286047002.6,N
1524843735.9,286047002.2,N
1524843755.7,286047002.1,N
1524843775.5,286046999.7,N
1524843795.4,286047000.8,N
1524843815.2,286046998.1,N
1524843835.1,286046999.3,N
1524843836.0,286046999.3,N
1524843855.8,286046998.2,N
1524843875.6,286047000.2,N
1524843895.5,286047000.4,N
1524843915.3,286047000.5,N
1524843935.1,286047000.7,N
1524843955.9,286047000.0,N
1524843975.7,286046999.9,N
1524843995.6,286047001.5,N
1524844015.4,286047002.0,N
1524844035.2,286047001.4,N
1524844055.1,286047002.6,N
1524844056.0,286047002.6,N
1524844075.8,286047001.5,N
1524844095.6,286047001.6,N
1524844115.5,286047002.1,N
1524844135.3,286047002.6,N
1524844155.2,286047000.2,N
1524844175.9,286047000.3,N
1524844195.7,286047000.4,N
1524844215.6,286047001.0,N
1524844235.4,286046998.4,N
1524844255.3,286046999.2,N
1524844275.1,286046997.3,N
1524844276.0,286046997.3,N
1524844295.8,286046997.7,N
1524844315.7,286046996.8,N
1524844335.5,286046999.6,N
1524844355.3,286046997.3,N
1524844375.2,286046998.5,N
1524844395.0,286047001.1,N
1524844395.9,286047001.1,N
1524844415.8,286046999.0,N
1524844435.6,286046998.5,N
1524844455.4,286046999.2,N
1524844475.3,286046996.6,N
1524844495.1,286046996.5,N
1524844515.8,286046996.5,N
1524844535.7,286046998.9,N
1524844555.5,286046999.6,N
1524844575.4,286046997.4,N
1524844595.2,286046997.8,N
1524844615.0,286046996.8,N
1524844615.9,286046996.8,N
1524844635.8,286046997.4,N
1524844655.6,286046997.7,N
1524844675.5,286046997.9,N
1524844695.3,286046997.7,N
1524844715.1,286046996.9,N
1524844735.9,286046997.7,N
1524844755.7,286046997.4,N
1524844775.5,286046997.3,N
1524844795.4,286046999.1,N
